Location: Unspecified
(49.2170°N, 0.0000°E)
Time: 11:50:03
(UTC+00:00)

Vanguard 1 - Pass Details

Date: 26 June 2021
Orbit: 651 x 3832 km, 34.2° (Epoch: 23 July)

Event Time Altitude Azimuth Distance (km) Brightness Sun altitude
Rises 21:45:48 0° 256° (WSW) 7,820 14.9 -11.3°
Reaches altitude 10° 21:51:13 10° 252° (WSW) 6,908 14.5 -11.7°
Maximum altitude 22:13:03 51° 186° (S) 4,014 12.8 -13.4°
Drops below altitude 10° 22:28:54 10° 117° (ESE) 5,181 13.3 -14.5°
Sets 22:32:17 0° 112° (ESE) 5,831 13.6 -14.7°
